Time,TemperatureF,DewpointF,PressureIn,WindDirection,WindDirectionDegrees,WindSpeedMPH,WindSpeedGustMPH,Humidity,HourlyPrecipIn,Conditions,Clouds,dailyrainin,SoftwareType,DateUTC
2013-01-26 00:03:00,19.0,16.0,30.09,NE,35,0.0,0.0,88,0.00,,,0.00,,2013-01-26 05:03:00,
2013-01-26 00:12:00,19.0,16.0,30.09,NE,35,0.0,0.0,88,0.00,,,0.00,,2013-01-26 05:12:00,
2013-01-26 00:23:00,18.0,15.0,30.09,North,352,3.0,0.0,87,0.00,,,0.00,,2013-01-26 05:23:00,
2013-01-26 00:33:00,18.0,15.0,30.08,NNW,327,0.0,0.0,87,0.00,,,0.00,,2013-01-26 05:33:00,
2013-01-26 00:42:00,18.0,15.0,30.08,NNW,327,0.0,0.0,87,0.00,,,0.00,,2013-01-26 05:42:00,
2013-01-26 00:53:00,18.0,15.0,30.08,North,352,0.0,0.0,87,0.00,,,0.00,,2013-01-26 05:53:00,
2013-01-26 01:02:00,18.0,15.0,30.08,North,357,0.0,0.0,87,0.00,,,0.00,,2013-01-26 06:02:00,
2013-01-26 01:12:00,18.0,15.0,30.08,North,357,0.0,0.0,87,0.00,,,0.00,,2013-01-26 06:12:00,
2013-01-26 01:21:00,17.0,13.0,30.08,NNW,331,2.0,0.0,85,0.00,,,0.00,,2013-01-26 06:21:00,
2013-01-26 01:32:00,17.0,13.0,30.07,NNW,347,0.0,5.0,85,0.00,,,0.00,,2013-01-26 06:32:00,
2013-01-26 01:42:00,17.0,13.0,30.07,NNW,347,0.0,5.0,85,0.00,,,0.00,,2013-01-26 06:42:00,
2013-01-26 01:52:00,17.0,13.0,30.07,North,352,4.0,5.0,85,0.00,,,0.00,,2013-01-26 06:52:00,
2013-01-26 02:02:00,16.0,13.0,30.07,NNE,13,2.0,5.0,86,0.00,,,0.00,,2013-01-26 07:02:00,
2013-01-26 02:12:00,16.0,13.0,30.07,NNE,13,2.0,5.0,86,0.00,,,0.00,,2013-01-26 07:12:00,
2013-01-26 02:22:00,16.0,13.0,30.07,NNE,13,2.0,5.0,86,0.00,,,0.00,,2013-01-26 07:22:00,
2013-01-26 02:33:00,16.0,13.0,30.07,North,8,0.0,2.0,86,0.00,,,0.00,,2013-01-26 07:33:00,
2013-01-26 02:41:00,16.0,13.0,30.07,North,8,0.0,2.0,86,0.00,,,0.00,,2013-01-26 07:41:00,
2013-01-26 02:52:00,16.0,13.0,30.07,North,7,0.0,2.0,86,0.00,,,0.00,,2013-01-26 07:52:00,
2013-01-26 03:02:00,15.0,12.0,30.07,North,7,0.0,2.0,86,0.00,,,0.00,,2013-01-26 08:02:00,
2013-01-26 03:11:00,15.0,12.0,30.07,North,7,0.0,2.0,86,0.00,,,0.00,,2013-01-26 08:11:00,
2013-01-26 03:21:00,15.0,12.0,30.07,North,7,0.0,2.0,87,0.00,,,0.00,,2013-01-26 08:21:00,
2013-01-26 03:32:00,14.0,11.0,30.06,North,7,0.0,0.0,88,0.00,,,0.00,,2013-01-26 08:32:00,
2013-01-26 03:42:00,14.0,11.0,30.06,North,7,0.0,0.0,88,0.00,,,0.00,,2013-01-26 08:42:00,
2013-01-26 03:53:00,14.0,11.0,30.06,North,7,0.0,0.0,88,0.00,,,0.00,,2013-01-26 08:53:00,
2013-01-26 04:02:00,14.0,11.0,30.05,North,7,0.0,0.0,89,0.00,,,0.00,,2013-01-26 09:02:00,
2013-01-26 04:11:00,14.0,11.0,30.05,North,7,0.0,0.0,89,0.00,,,0.00,,2013-01-26 09:11:00,
2013-01-26 04:22:00,14.0,11.0,30.06,North,7,0.0,0.0,89,0.00,,,0.00,,2013-01-26 09:22:00,
2013-01-26 04:32:00,13.0,10.0,30.06,North,7,0.0,0.0,88,0.00,,,0.00,,2013-01-26 09:32:00,
2013-01-26 04:42:00,13.0,10.0,30.06,North,7,0.0,0.0,88,0.00,,,0.00,,2013-01-26 09:42:00,
2013-01-26 04:51:00,12.0,9.0,30.06,North,7,0.0,0.0,89,0.00,,,0.00,,2013-01-26 09:51:00,
2013-01-26 05:01:00,12.0,9.0,30.06,North,7,0.0,0.0,89,0.00,,,0.00,,2013-01-26 10:01:00,
2013-01-26 05:12:00,12.0,9.0,30.06,North,7,0.0,0.0,89,0.00,,,0.00,,2013-01-26 10:12:00,
2013-01-26 05:21:00,12.0,10.0,30.07,North,7,0.0,0.0,90,0.00,,,0.00,,2013-01-26 10:21:00,
2013-01-26 05:32:00,12.0,10.0,30.06,North,7,0.0,0.0,90,0.00,,,0.00,,2013-01-26 10:32:00,
2013-01-26 05:42:00,12.0,10.0,30.06,North,7,0.0,0.0,90,0.00,,,0.00,,2013-01-26 10:42:00,
2013-01-26 05:52:00,12.0,10.0,30.06,North,7,0.0,0.0,90,0.00,,,0.00,,2013-01-26 10:52:00,
2013-01-26 06:01:00,12.0,9.0,30.06,North,7,0.0,0.0,89,0.00,,,0.00,,2013-01-26 11:01:00,
2013-01-26 06:12:00,12.0,9.0,30.06,North,7,0.0,0.0,89,0.00,,,0.00,,2013-01-26 11:12:00,
2013-01-26 06:22:00,12.0,9.0,30.06,North,7,0.0,0.0,89,0.00,,,0.00,,2013-01-26 11:22:00,
2013-01-26 06:32:00,11.0,8.0,30.07,North,7,0.0,0.0,88,0.00,,,0.00,,2013-01-26 11:32:00,
2013-01-26 06:42:00,11.0,8.0,30.07,North,7,0.0,0.0,88,0.00,,,0.00,,2013-01-26 11:42:00,
2013-01-26 06:52:00,10.0,7.0,30.08,North,7,0.0,0.0,89,0.00,,,0.00,,2013-01-26 11:52:00,
2013-01-26 07:02:00,10.0,7.0,30.08,North,7,0.0,0.0,89,0.00,,,0.00,,2013-01-26 12:02:00,
2013-01-26 07:12:00,10.0,7.0,30.08,North,7,0.0,0.0,89,0.00,,,0.00,,2013-01-26 12:12:00,
2013-01-26 07:23:00,10.0,7.0,30.08,North,7,0.0,0.0,89,0.00,,,0.00,,2013-01-26 12:23:00,
2013-01-26 07:33:00,9.0,6.0,30.10,North,7,0.0,0.0,89,0.00,,,0.00,,2013-01-26 12:33:00,
2013-01-26 07:42:00,9.0,6.0,30.10,North,7,0.0,0.0,89,0.00,,,0.00,,2013-01-26 12:42:00,
2013-01-26 07:53:00,10.0,7.0,30.10,North,7,0.0,0.0,89,0.00,,,0.00,,2013-01-26 12:53:00,
2013-01-26 08:03:00,10.0,7.0,30.11,North,7,0.0,0.0,89,0.00,,,0.00,,2013-01-26 13:03:00,
2013-01-26 08:12:00,10.0,7.0,30.11,North,7,0.0,0.0,89,0.00,,,0.00,,2013-01-26 13:12:00,
2013-01-26 08:22:00,12.0,9.0,30.11,NW,320,0.0,0.0,88,0.00,,,0.00,,2013-01-26 13:22:00,
2013-01-26 08:33:00,14.0,10.0,30.11,NNE,21,4.0,4.0,82,0.00,,,0.00,,2013-01-26 13:33:00,
2013-01-26 08:42:00,14.0,10.0,30.11,NNE,21,4.0,4.0,82,0.00,,,0.00,,2013-01-26 13:42:00,
2013-01-26 08:52:00,14.0,9.0,30.11,NNW,328,0.0,4.0,80,0.00,,,0.00,,2013-01-26 13:52:00,
2013-01-26 09:03:00,15.0,9.0,30.11,NNE,13,0.0,4.0,76,0.00,,,0.00,,2013-01-26 14:03:00,
2013-01-26 09:12:00,15.0,9.0,30.11,NNE,13,0.0,4.0,76,0.00,,,0.00,,2013-01-26 14:12:00,
2013-01-26 09:22:00,16.0,9.0,30.12,NNW,330,5.0,5.0,74,0.00,,,0.00,,2013-01-26 14:22:00,
2013-01-26 09:32:00,16.0,9.0,30.12,NW,323,5.0,6.0,72,0.00,,,0.00,,2013-01-26 14:32:00,
2013-01-26 09:43:00,16.0,9.0,30.12,NW,323,5.0,6.0,72,0.00,,,0.00,,2013-01-26 14:43:00,
2013-01-26 09:52:00,17.0,9.0,30.12,NNE,14,5.0,6.0,71,0.00,,,0.00,,2013-01-26 14:52:00,
2013-01-26 10:03:00,18.0,8.0,30.13,North,2,9.0,9.0,65,0.00,,,0.00,,2013-01-26 15:03:00,
2013-01-26 10:12:00,18.0,8.0,30.13,North,2,9.0,9.0,65,0.00,,,0.00,,2013-01-26 15:12:00,
2013-01-26 10:22:00,18.0,9.0,30.12,North,352,2.0,6.0,66,0.00,,,0.00,,2013-01-26 15:22:00,
2013-01-26 10:33:00,18.0,9.0,30.12,North,352,2.0,6.0,66,0.00,,,0.00,,2013-01-26 15:33:00,
2013-01-26 10:43:00,18.0,9.0,30.12,North,352,2.0,6.0,66,0.00,,,0.00,,2013-01-26 15:43:00,
2013-01-26 10:53:00,19.0,9.0,30.12,NNE,18,5.0,9.0,63,0.00,,,0.00,,2013-01-26 15:53:00,
2013-01-26 11:02:00,20.0,9.0,30.11,NNW,337,7.0,9.0,61,0.00,,,0.00,,2013-01-26 16:02:00,
2013-01-26 11:12:00,21.0,9.0,30.11,WNW,297,4.0,9.0,60,0.00,,,0.00,,2013-01-26 16:12:00,
2013-01-26 11:22:00,21.0,9.0,30.11,WNW,297,4.0,9.0,60,0.00,,,0.00,,2013-01-26 16:22:00,
2013-01-26 11:33:00,21.0,9.0,30.11,NW,312,9.0,9.0,59,0.00,,,0.00,,2013-01-26 16:33:00,
2013-01-26 11:42:00,21.0,9.0,30.11,NW,312,9.0,9.0,59,0.00,,,0.00,,2013-01-26 16:42:00,
2013-01-26 11:53:00,22.0,10.0,30.11,NW,317,2.0,8.0,58,0.00,,,0.00,,2013-01-26 16:53:00,
2013-01-26 12:03:00,22.0,10.0,30.11,NW,317,2.0,8.0,58,0.00,,,0.00,,2013-01-26 17:03:00,
2013-01-26 12:13:00,22.0,10.0,30.11,NW,317,2.0,8.0,58,0.00,,,0.00,,2013-01-26 17:13:00,
2013-01-26 12:22:00,23.0,10.0,30.10,NNW,340,5.0,8.0,57,0.00,,,0.00,,2013-01-26 17:22:00,
2013-01-26 12:33:00,23.0,10.0,30.10,NNW,340,5.0,8.0,57,0.00,,,0.00,,2013-01-26 17:33:00,
2013-01-26 12:42:00,23.0,10.0,30.10,NNW,340,5.0,8.0,57,0.00,,,0.00,,2013-01-26 17:42:00,
2013-01-26 12:52:00,23.0,10.0,30.10,NNW,340,5.0,8.0,57,0.00,,,0.00,,2013-01-26 17:52:00,
2013-01-26 13:03:00,23.0,8.0,30.10,NW,326,13.0,14.0,53,0.00,,,0.00,,2013-01-26 18:03:00,
2013-01-26 13:12:00,23.0,8.0,30.10,NW,326,13.0,14.0,53,0.00,,,0.00,,2013-01-26 18:12:00,
2013-01-26 13:22:00,23.0,8.0,30.09,WNW,295,0.0,14.0,53,0.00,,,0.00,,2013-01-26 18:22:00,
2013-01-26 13:33:00,24.0,9.0,30.10,WNW,284,4.0,6.0,51,0.00,,,0.00,,2013-01-26 18:33:00,
2013-01-26 13:42:00,24.0,9.0,30.10,WNW,284,4.0,6.0,51,0.00,,,0.00,,2013-01-26 18:42:00,
2013-01-26 13:53:00,24.0,9.0,30.09,WNW,287,7.0,7.0,51,0.00,,,0.00,,2013-01-26 18:53:00,
2013-01-26 14:03:00,24.0,9.0,30.09,WNW,295,3.0,6.0,51,0.00,,,0.00,,2013-01-26 19:03:00,
2013-01-26 14:12:00,24.0,9.0,30.09,WNW,295,3.0,6.0,51,0.00,,,0.00,,2013-01-26 19:12:00,
2013-01-26 14:22:00,25.0,9.0,30.09,NW,311,6.0,6.0,50,0.00,,,0.00,,2013-01-26 19:22:00,
2013-01-26 14:32:00,25.0,9.0,30.09,NW,311,6.0,6.0,50,0.00,,,0.00,,2013-01-26 19:32:00,
2013-01-26 14:42:00,25.0,9.0,30.09,NW,311,6.0,6.0,50,0.00,,,0.00,,2013-01-26 19:42:00,
2013-01-26 14:52:00,26.0,10.0,30.09,WNW,300,2.0,10.0,50,0.00,,,0.00,,2013-01-26 19:52:00,
2013-01-26 15:02:00,25.0,8.0,30.11,WNW,299,10.0,10.0,47,0.00,,,0.00,,2013-01-26 20:02:00,
2013-01-26 15:12:00,25.0,8.0,30.11,WNW,299,10.0,10.0,47,0.00,,,0.00,,2013-01-26 20:12:00,
2013-01-26 15:22:00,25.0,8.0,30.11,WNW,299,10.0,10.0,47,0.00,,,0.00,,2013-01-26 20:22:00,
2013-01-26 15:32:00,25.0,7.0,30.11,NNW,337,7.0,7.0,45,0.00,,,0.00,,2013-01-26 20:32:00,
2013-01-26 15:42:00,25.0,7.0,30.11,NNW,337,7.0,7.0,45,0.00,,,0.00,,2013-01-26 20:42:00,
2013-01-26 15:52:00,25.0,8.0,30.11,NW,320,6.0,6.0,47,0.00,,,0.00,,2013-01-26 20:52:00,
2013-01-26 16:03:00,25.0,8.0,30.11,NW,320,6.0,6.0,47,0.00,,,0.00,,2013-01-26 21:03:00,
2013-01-26 16:12:00,25.0,8.0,30.11,NW,320,6.0,6.0,47,0.00,,,0.00,,2013-01-26 21:12:00,
2013-01-26 16:23:00,25.0,8.0,30.11,NW,320,6.0,6.0,47,0.00,,,0.00,,2013-01-26 21:23:00,
2013-01-26 16:32:00,25.0,8.0,30.14,NNW,339,12.0,12.0,47,0.00,,,0.00,,2013-01-26 21:32:00,
2013-01-26 16:43:00,25.0,8.0,30.14,NNW,339,12.0,12.0,47,0.00,,,0.00,,2013-01-26 21:43:00,
2013-01-26 16:52:00,25.0,6.0,30.15,NW,320,14.0,14.0,44,0.00,,,0.00,,2013-01-26 21:52:00,
2013-01-26 17:02:00,24.0,5.0,30.16,West,274,13.0,13.0,43,0.00,,,0.00,,2013-01-26 22:02:00,
2013-01-26 17:12:00,24.0,5.0,30.16,West,274,13.0,13.0,43,0.00,,,0.00,,2013-01-26 22:12:00,
2013-01-26 17:22:00,23.0,4.0,30.16,NW,314,3.0,6.0,44,0.00,,,0.00,,2013-01-26 22:22:00,
2013-01-26 17:32:00,23.0,5.0,30.16,NNW,337,8.0,14.0,45,0.00,,,0.00,,2013-01-26 22:32:00,
2013-01-26 17:42:00,23.0,5.0,30.16,NNW,337,8.0,14.0,45,0.00,,,0.00,,2013-01-26 22:42:00,
2013-01-26 17:52:00,22.0,4.0,30.17,WNW,302,5.0,14.0,46,0.00,,,0.00,,2013-01-26 22:52:00,
2013-01-26 18:02:00,22.0,5.0,30.17,NW,308,7.0,14.0,47,0.00,,,0.00,,2013-01-26 23:02:00,
2013-01-26 18:12:00,22.0,5.0,30.17,NW,308,7.0,14.0,47,0.00,,,0.00,,2013-01-26 23:12:00,
2013-01-26 18:22:00,21.0,4.0,30.19,WNW,296,12.0,14.0,47,0.00,,,0.00,,2013-01-26 23:22:00,
2013-01-26 18:32:00,21.0,3.0,30.19,NW,308,4.0,5.0,45,0.00,,,0.00,,2013-01-26 23:32:00,
2013-01-26 18:42:00,21.0,3.0,30.19,NW,308,4.0,5.0,45,0.00,,,0.00,,2013-01-26 23:42:00,
2013-01-26 18:52:00,21.0,3.0,30.20,NW,312,11.0,11.0,44,0.00,,,0.00,,2013-01-26 23:52:00,
2013-01-26 19:02:00,21.0,2.0,30.20,NW,314,4.0,5.0,43,0.00,,,0.00,,2013-01-27 00:02:00,
2013-01-26 19:12:00,21.0,2.0,30.20,NW,314,4.0,5.0,43,0.00,,,0.00,,2013-01-27 00:12:00,
2013-01-26 19:21:00,20.0,2.0,30.22,NNW,330,6.0,6.0,44,0.00,,,0.00,,2013-01-27 00:21:00,
2013-01-26 19:32:00,20.0,2.0,30.23,NW,306,3.0,13.0,45,0.00,,,0.00,,2013-01-27 00:32:00,
2013-01-26 19:42:00,20.0,2.0,30.23,NW,306,3.0,13.0,45,0.00,,,0.00,,2013-01-27 00:42:00,
2013-01-26 19:52:00,20.0,3.0,30.24,NW,316,1.0,13.0,46,0.00,,,0.00,,2013-01-27 00:52:00,
2013-01-26 20:01:00,20.0,3.0,30.24,NW,316,1.0,13.0,46,0.00,,,0.00,,2013-01-27 01:01:00,
2013-01-26 20:11:00,20.0,3.0,30.24,NW,316,1.0,13.0,46,0.00,,,0.00,,2013-01-27 01:11:00,
2013-01-26 20:22:00,20.0,4.0,30.24,NW,316,5.0,13.0,48,0.00,,,0.00,,2013-01-27 01:22:00,
2013-01-26 20:32:00,19.0,3.0,30.24,West,280,7.0,10.0,49,0.00,,,0.00,,2013-01-27 01:32:00,
2013-01-26 20:42:00,19.0,3.0,30.24,West,280,7.0,10.0,49,0.00,,,0.00,,2013-01-27 01:42:00,
2013-01-26 20:52:00,19.0,4.0,30.26,WNW,299,0.0,10.0,51,0.00,,,0.00,,2013-01-27 01:52:00,
2013-01-26 21:01:00,19.0,4.0,30.25,NNW,333,2.0,10.0,52,0.00,,,0.00,,2013-01-27 02:01:00,
2013-01-26 21:12:00,19.0,4.0,30.25,NNW,333,2.0,10.0,52,0.00,,,0.00,,2013-01-27 02:12:00,
2013-01-26 21:22:00,19.0,4.0,30.26,NW,306,8.0,10.0,52,0.00,,,0.00,,2013-01-27 02:22:00,
2013-01-26 21:32:00,18.0,4.0,30.26,NNW,335,4.0,12.0,53,0.00,,,0.00,,2013-01-27 02:32:00,
2013-01-26 21:42:00,18.0,4.0,30.26,NNW,335,4.0,12.0,53,0.00,,,0.00,,2013-01-27 02:42:00,
2013-01-26 21:52:00,18.0,4.0,30.26,NNW,335,4.0,12.0,53,0.00,,,0.00,,2013-01-27 02:52:00,
2013-01-26 22:02:00,18.0,5.0,30.27,NW,316,3.0,12.0,55,0.00,,,0.00,,2013-01-27 03:02:00,
2013-01-26 22:11:00,18.0,5.0,30.27,NW,316,3.0,12.0,55,0.00,,,0.00,,2013-01-27 03:11:00,
2013-01-26 22:21:00,18.0,5.0,30.29,WNW,299,4.0,12.0,56,0.00,,,0.00,,2013-01-27 03:21:00,
2013-01-26 22:32:00,17.0,4.0,30.29,NW,316,1.0,4.0,56,0.00,,,0.00,,2013-01-27 03:32:00,
2013-01-26 22:42:00,17.0,4.0,30.29,NW,316,1.0,4.0,56,0.00,,,0.00,,2013-01-27 03:42:00,
2013-01-26 22:52:00,17.0,4.0,30.30,NW,312,4.0,4.0,55,0.00,,,0.00,,2013-01-27 03:52:00,
2013-01-26 23:02:00,17.0,4.0,30.30,NW,313,2.0,4.0,56,0.00,,,0.00,,2013-01-27 04:02:00,
2013-01-26 23:12:00,17.0,4.0,30.30,NW,313,2.0,4.0,56,0.00,,,0.00,,2013-01-27 04:12:00,
2013-01-26 23:21:00,17.0,4.0,30.31,NW,326,4.0,4.0,56,0.00,,,0.00,,2013-01-27 04:21:00,
2013-01-26 23:32:00,17.0,4.0,30.31,NW,306,8.0,12.0,56,0.00,,,0.00,,2013-01-27 04:32:00,
2013-01-26 23:42:00,17.0,4.0,30.31,NW,306,8.0,12.0,56,0.00,,,0.00,,2013-01-27 04:42:00,
2013-01-26 23:51:00,17.0,4.0,30.32,NW,308,2.0,12.0,56,0.00,,,0.00,,2013-01-27 04:51:00,